TimeMST,TemperatureF,Dew PointF,Humidity,Sea Level PressureIn,VisibilityMPH,Wind Direction,Wind SpeedMPH,Gust SpeedMPH,PrecipitationIn,Events,Conditions,WindDirDegrees,DateUTC
12:15 AM,35.6,26.6,70,30.08,10.0,Calm,Calm,-,N/A,,Clear,0,2012-11-21 07:15:00
12:35 AM,35.6,26.6,70,30.08,10.0,SE,5.8,-,N/A,,Clear,130,2012-11-21 07:35:00
12:55 AM,37.4,26.6,65,30.07,10.0,SSE,9.2,-,N/A,,Clear,160,2012-11-21 07:55:00
1:15 AM,32.0,24.8,75,30.08,10.0,SSE,9.2,-,N/A,,Clear,160,2012-11-21 08:15:00
1:35 AM,33.8,24.8,70,30.07,10.0,NNE,6.9,-,N/A,,Clear,30,2012-11-21 08:35:00
1:55 AM,33.8,24.8,70,30.08,10.0,Calm,Calm,-,N/A,,Clear,0,2012-11-21 08:55:00
2:15 AM,33.8,26.6,75,30.07,10.0,NNE,4.6,-,N/A,,Clear,30,2012-11-21 09:15:00
2:35 AM,35.6,26.6,70,30.07,10.0,Calm,Calm,-,N/A,,Clear,0,2012-11-21 09:35:00
2:55 AM,32.0,26.6,80,30.06,10.0,NNE,6.9,-,N/A,,Clear,20,2012-11-21 09:55:00
3:15 AM,35.6,24.8,65,30.05,10.0,NE,4.6,-,N/A,,Clear,40,2012-11-21 10:15:00
3:35 AM,35.6,24.8,65,30.04,10.0,NNE,6.9,-,N/A,,Clear,20,2012-11-21 10:35:00
3:55 AM,30.2,23.0,75,30.05,10.0,Calm,Calm,-,N/A,,Clear,0,2012-11-21 10:55:00
4:15 AM,30.2,24.8,80,30.04,10.0,Calm,Calm,-,N/A,,Clear,0,2012-11-21 11:15:00
4:35 AM,30.2,24.8,80,30.04,10.0,Calm,Calm,-,N/A,,Clear,0,2012-11-21 11:35:00
4:55 AM,32.0,21.2,64,30.05,10.0,Calm,Calm,-,N/A,,Clear,0,2012-11-21 11:55:00
5:15 AM,32.0,21.2,64,30.03,10.0,Calm,Calm,-,N/A,,Clear,0,2012-11-21 12:15:00
5:35 AM,33.8,24.8,70,30.03,10.0,Calm,Calm,-,N/A,,Clear,0,2012-11-21 12:35:00
5:55 AM,30.2,24.8,80,30.04,10.0,South,8.1,-,N/A,,Clear,190,2012-11-21 12:55:00
6:15 AM,30.2,24.8,80,30.05,10.0,Calm,Calm,-,N/A,,Clear,0,2012-11-21 13:15:00
6:55 AM,32.0,21.2,64,30.04,10.0,SSW,5.8,-,N/A,,Clear,200,2012-11-21 13:55:00
7:15 AM,32.0,24.8,75,30.04,10.0,North,3.5,-,N/A,,Clear,10,2012-11-21 14:15:00
7:35 AM,35.6,24.8,65,30.05,10.0,Calm,Calm,-,N/A,,Clear,0,2012-11-21 14:35:00
7:55 AM,35.6,26.6,70,30.04,10.0,Calm,Calm,-,N/A,,Clear,0,2012-11-21 14:55:00
8:15 AM,39.2,28.4,65,30.04,10.0,North,3.5,-,N/A,,Clear,350,2012-11-21 15:15:00
8:55 AM,44.6,32.0,61,30.05,10.0,North,8.1,-,N/A,,Clear,360,2012-11-21 15:55:00
9:15 AM,42.8,30.2,61,30.04,10.0,NNW,3.5,-,N/A,,Clear,330,2012-11-21 16:15:00
9:35 AM,46.4,28.4,50,30.04,10.0,Calm,Calm,-,N/A,,Clear,0,2012-11-21 16:35:00
9:55 AM,51.8,26.6,38,30.03,10.0,Calm,Calm,-,N/A,,Clear,0,2012-11-21 16:55:00
10:15 AM,55.4,28.4,36,30.03,10.0,Calm,Calm,-,N/A,,Clear,0,2012-11-21 17:15:00
10:55 AM,59.0,28.4,31,30.00,10.0,Calm,Calm,-,N/A,,Clear,0,2012-11-21 17:55:00
11:15 AM,60.8,30.2,31,29.99,10.0,SE,3.5,-,N/A,,Clear,140,2012-11-21 18:15:00
11:35 AM,64.4,30.2,28,29.97,10.0,SSE,5.8,-,N/A,,Clear,150,2012-11-21 18:35:00
11:55 AM,64.4,28.4,26,29.96,10.0,SSE,6.9,-,N/A,,Clear,160,2012-11-21 18:55:00
12:15 PM,68.0,28.4,23,29.94,10.0,South,4.6,-,N/A,,Clear,190,2012-11-21 19:15:00
12:35 PM,68.0,26.6,21,29.93,10.0,Calm,Calm,-,N/A,,Clear,0,2012-11-21 19:35:00
12:55 PM,69.8,24.8,18,29.92,10.0,SSW,5.8,-,N/A,,Clear,210,2012-11-21 19:55:00
1:15 PM,69.8,32.0,25,29.92,10.0,ESE,10.4,-,N/A,,Clear,120,2012-11-21 20:15:00
1:35 PM,69.8,30.2,23,29.91,10.0,SSE,6.9,-,N/A,,Clear,160,2012-11-21 20:35:00
1:55 PM,69.8,26.6,20,29.90,10.0,SSE,4.6,-,N/A,,Clear,160,2012-11-21 20:55:00
2:15 PM,69.8,24.8,18,29.90,10.0,South,9.2,-,N/A,,Clear,190,2012-11-21 21:15:00
2:35 PM,69.8,21.2,16,29.89,10.0,South,9.2,-,N/A,,Clear,180,2012-11-21 21:35:00
2:55 PM,69.8,19.4,15,29.89,10.0,SSW,11.5,-,N/A,,Clear,200,2012-11-21 21:55:00
3:15 PM,66.2,15.8,14,29.89,10.0,SW,10.4,-,N/A,,Clear,230,2012-11-21 22:15:00
3:35 PM,64.4,15.8,15,29.89,10.0,SW,8.1,-,N/A,,Clear,230,2012-11-21 22:35:00
3:55 PM,64.4,17.6,16,29.89,10.0,SW,6.9,-,N/A,,Clear,230,2012-11-21 22:55:00
4:35 PM,62.6,15.8,16,29.89,10.0,South,8.1,-,N/A,,Clear,180,2012-11-21 23:35:00
4:55 PM,59.0,15.8,19,29.90,10.0,Calm,Calm,-,N/A,,Clear,0,2012-11-21 23:55:00
5:15 PM,60.8,15.8,17,29.90,10.0,Calm,Calm,-,N/A,,Clear,0,2012-11-22 00:15:00
5:35 PM,60.8,15.8,17,29.90,10.0,South,6.9,-,N/A,,Clear,190,2012-11-22 00:35:00
5:55 PM,60.8,15.8,17,29.91,10.0,WSW,10.4,-,N/A,,Clear,250,2012-11-22 00:55:00
6:15 PM,60.8,15.8,17,29.91,10.0,WNW,9.2,-,N/A,,Clear,290,2012-11-22 01:15:00
6:35 PM,59.0,15.8,19,29.91,10.0,WNW,11.5,-,N/A,,Clear,290,2012-11-22 01:35:00
6:55 PM,59.0,15.8,19,29.90,10.0,West,9.2,-,N/A,,Clear,260,2012-11-22 01:55:00
7:15 PM,53.6,15.8,22,29.90,10.0,SW,3.5,-,N/A,,Clear,230,2012-11-22 02:15:00
7:35 PM,59.0,17.6,20,29.90,10.0,Calm,Calm,-,N/A,,Clear,0,2012-11-22 02:35:00
7:55 PM,59.0,15.8,19,29.90,10.0,NW,10.4,-,N/A,,Clear,310,2012-11-22 02:55:00
8:15 PM,59.0,15.8,19,29.89,10.0,WNW,13.8,-,N/A,,Clear,290,2012-11-22 03:15:00
8:35 PM,53.6,15.8,22,29.89,10.0,West,6.9,-,N/A,,Clear,260,2012-11-22 03:35:00
9:15 PM,53.6,14.0,21,29.90,10.0,NNW,9.2,-,N/A,,Clear,330,2012-11-22 04:15:00
9:35 PM,48.2,17.6,30,29.89,10.0,SW,5.8,-,N/A,,Clear,220,2012-11-22 04:35:00
9:55 PM,50.0,17.6,28,29.90,10.0,WNW,5.8,-,N/A,,Clear,300,2012-11-22 04:55:00
10:15 PM,57.2,19.4,23,29.89,10.0,WNW,11.5,-,N/A,,Clear,300,2012-11-22 05:15:00
10:35 PM,57.2,15.8,20,29.90,10.0,West,4.6,-,N/A,,Clear,270,2012-11-22 05:35:00
10:55 PM,57.2,15.8,20,29.90,10.0,South,6.9,-,N/A,,Clear,170,2012-11-22 05:55:00
11:15 PM,51.8,17.6,26,29.90,10.0,North,4.6,-,N/A,,Clear,10,2012-11-22 06:15:00
11:55 PM,59.0,19.4,22,29.90,10.0,West,17.3,28.8,N/A,,Clear,270,2012-11-22 06:55:00